Location: Maiden
(35.5760°N, 81.2120°W)
Time: 03:07:28
(UTC-04:00)

Cosmos 1833 Rocket - Pass Details

Date: 02 August 2020
Orbit: 832 x 840 km, 71.0° (Epoch: 11 August)

Event Time Altitude Azimuth Distance (km) Brightness Sun altitude
Exits shadow 23:39:52 37° 259° (W) 1,282 3.7 -30.8°
Maximum altitude 23:41:17 44° 296° (WNW) 1,148 3.6 -31.0°
Drops below altitude 10° 23:46:38 10° 8° (N) 2,452 5.7 -31.5°
Sets 23:49:12 0° 15° (NNE) 3,391 6.4 -31.8°
